Location: Gälforsberget
(66.6500°N, 22.4167°E)
Time: 07:46:56
(UTC+00:00)

Cosmos 1782 Rocket - Pass Details

Date: 11 April 2026
Orbit: 600 x 624 km, 82.5° (Epoch: 9 May)

Event Time Altitude Azimuth Distance (km) Brightness Sun altitude
Exits shadow 21:31:30 21° 189° (S) 1,391 4.8 -14.0°
Maximum altitude 21:34:23 78° 105° (ESE) 624 3.5 -14.1°
Drops below altitude 10° 21:38:43 10° 20° (NNE) 1,961 7.0 -14.2°
Sets 21:40:56 0° 19° (NNE) 2,868 8.0 -14.2°
